ONEWEB-0399 (50479 NORAD) Tracking and Keplerian Element Data

This shows tracking and keplerian element data for the satellite.

Feedback or suggestion? Click here.




ElementValue
Catalog50479
NameONEWEB-0399
Epoch Orbit2181
Epoch Day140.91667824
Epoch Year2022
RAAN316.9552
Inclination87.8859
Eccentricity0.0001904
Argument of Perigee79.5553
Mean Anonmoly112.4073
Mean Motion13.11803063
Decay Rate-0.0002765
L11 50479U 21132L 22140.91667824 -.00027650 00000+0 -77847-1 0 9991
L22 50479 87.8859 316.9552 0001904 79.5553 112.4073 13.11803063 21817

Live tracking and technical data element details for ONEWEB-0399 (NORAD 50479). ONEWEB-0399 can be tracked NOW for your location showing map with azimuth and elevation plus other details from your city location.

Track the satellite on the map from your city or location and see movement details for azimuth, elevation, latitude, longitude, range, height, and movement on the map or in text.







IsCatalogInMostPopularTable: catalog: 50479, numindb: 22
Update: records affected: 1



GetName: 50479 ONEWEB-0399

Hit Count: updated at: Mon, 23 May 2022 21:20:50 GMT